Portada
METAR-TAF:

METAR-TAF

Aeroports :

Lifuka, Tonga

latitud: 19-46-36S, longitud: 174-20-28W, altitud: 9 m

Observació

L'informe es va fer fa 1 hora i 1 minuts, a les 02:00 UTC
Vent 4 kt del Nord
Temperatura 29°C
Humitat 70%
Pressió 1008 hPa
Visibilitat 10 km o més
Escasses núvols a una alçada de 1700 ft, Cumulus congestus.
Cel ennuvolat a una alçada de 10000 ft

METAR: NFTL 060200Z 35004KT 9999 FEW017TCU BKN100 29/23 Q1008

Hora: 16:01 (03:01 UTC)


TAF: manca

Observacions i pronòstics meteorològics de més de 4000 aeroports (METAR i TAF).

Les estacions disponibles són els punts grocs i vermells al mapa.

Posi el ratolí al punt desitjat per veure el nom de l'estació.

Feu clic per veure les observacions i els pronòstics meteorològics.

Per canviar el mapa: feu clic els botons verds amb una creu de color negre per apropar; al botó verd amb un guió per allunyar la imatge; o en les fletxes verdes per a mapes adjacents.


METAR-TAF: